Terminal Aerodrome Forecast
Issued by NWS

Home | Current Version | Previous Version | Graphics & Text | Print | Product List | Glossary On
Versions: 1 2 3 4 5 6 7 8 9 10 11 12 13 14 15 16 17 18 19
000
FTUS43 KMPX 291137
TAFAXN
TAF
KAXN 291137Z 2912/3012 33021G30KT P6SM OVC012
     FM291600 33018G26KT P6SM OVC015
     FM292100 32015G23KT P6SM SCT020
     FM300200 33008KT P6SM SCT100
     FM300800 VRB03KT P6SM BKN100=

USA.gov is the U.S. government's official web portal to all federal, state and local government web resources and services.